Location: Shenandoah County Park
(38.9356°N, 78.4524°W)
Time: 13:20:12
(UTC-05:00)

Vanguard 2 Rocket - Pass Details

Date: 03 December 2023
Orbit: 555 x 3309 km, 32.9° (Epoch: 02 March)

Event Time Altitude Azimuth Distance (km) Brightness Sun altitude
Rises 16:35:54 0° 255° (WSW) 6,782 13.2 1.8°
Reaches altitude 10° 16:40:06 10° 254° (WSW) 5,972 12.9 1.1°
Maximum altitude 16:59:57 72° 175° (S) 3,366 9.9 -2.3°
Drops below altitude 10° 17:17:18 10° 96° (E) 5,325 10.3 -5.3°
Sets 17:20:47 0° 94° (E) 6,048 10.5 -5.9°
